Location: Rounton
(54.4000°N, 1.3500°W)
Time: 09:26:46
(UTC+00:00)

Vanguard 2 - Visible Passes

Search period start: 25 February 2024 00:00
Search period end: 06 March 2024 00:00
Orbit: 553 x 2919 km, 32.9° (Epoch: 24 February)

Date Brightness Start Highest point End Pass type
(mag) Time Alt. Az. Time Alt. Az. Time Alt. Az.
25 Feb 10.7 19:45:16 10° SSW 19:54:03 25° SSE 19:58:22 22° SE visible
25 Feb 10.7 21:51:27 10° SW 21:59:33 29° SSW 21:59:33 29° SSW visible
26 Feb 11.5 00:00:17 10° WSW 00:00:44 11° WSW 00:00:44 11° WSW visible
26 Feb 10.6 19:59:38 10° SSW 20:08:37 26° SSE 20:12:33 23° SE visible
26 Feb 10.8 22:06:19 10° WSW 22:13:45 27° SSW 22:13:45 27° SSW visible
27 Feb 10.8 18:10:16 10° S 18:15:45 16° SE 18:22:28 10° ESE visible
27 Feb 10.6 20:14:09 10° SW 20:23:13 27° SSE 20:26:43 25° SSE visible
27 Feb 10.9 22:21:19 10° WSW 22:27:54 25° SSW 22:27:54 25° SSW visible
28 Feb 10.7 18:24:01 10° S 18:30:09 18° SSE 18:38:01 10° ESE visible
28 Feb 10.6 20:28:48 10° SW 20:37:52 28° S 20:40:51 26° SSE visible
28 Feb 11.0 22:36:26 10° WSW 22:42:01 22° SW 22:42:01 22° SW visible
29 Feb 10.6 18:38:07 10° SSW 18:44:39 20° SSE 18:53:15 10° ESE visible
29 Feb 10.6 20:43:35 10° SW 20:52:33 27° S 20:54:57 26° SSE visible
29 Feb 11.1 22:51:44 10° WSW 22:56:08 19° SW 22:56:08 19° SW visible
01 Mar 10.6 18:52:27 10° SSW 18:59:12 22° SSE 19:07:53 11° ESE visible
01 Mar 10.6 20:58:29 10° SW 21:07:14 26° S 21:09:03 25° S visible
01 Mar 11.2 23:07:19 10° WSW 23:10:14 15° SW 23:10:14 15° SW visible
02 Mar 10.5 19:06:57 10° SSW 19:13:47 22° SSE 19:21:59 12° SE visible
02 Mar 10.7 21:13:31 10° SW 21:21:57 24° S 21:23:09 24° S visible
02 Mar 11.4 23:23:22 10° WSW 23:24:20 11° SW 23:24:20 11° SW visible
03 Mar 10.5 19:21:37 10° SW 19:28:26 23° S 19:36:05 13° SE visible
03 Mar 10.8 21:28:42 10° SW 21:36:39 22° SSW 21:37:16 22° S visible
04 Mar 10.6 19:36:25 10° SW 19:43:07 22° S 19:50:12 14° SE visible
04 Mar 10.9 21:44:08 10° SW 21:51:21 19° SSW 21:51:23 19° SSW visible
05 Mar 10.6 19:51:22 10° SW 19:57:49 21° S 20:04:20 14° SSE visible
05 Mar 11.1 22:00:00 10° SW 22:05:31 15° SSW 22:05:31 15° SSW visible
